Weather History for KICT - February, 2013

Change the Weather History Date:

Friday, February 1, 2013

  Actual Average Record
Temperature  
Mean Temperature 24 °F 34 °F  
Max Temperature 37 °F 45 °F 75 °F (1911)
Min Temperature 11 °F 23 °F -8 °F (1917)
Degree Days  
Heating Degree Days 41 31  
Month to date heating degree days 41 31  
Since 1 July heating degree days 2496 2891  
Cooling Degree Days 0 0  
Month to date cooling degree days 0 0  
Year to date cooling degree days 0 0  
Moisture  
Dew Point 8 °F    
Average Humidity 56    
Maximum Humidity 83    
Minimum Humidity 29    
Precipitation  
Precipitation 0.00 in 0.03 in 0.89 in (1973)
Month to date precipitation 0.00 0.03  
Year to date precipitation 0.57 0.86  
Snow  
Snow 0.00 in 0.10 in 6.10 in (1983)
Month to date snowfall 0.0 0.1  
Since 1 July snowfall 3.3 9.3  
Snow Depth 0.00 in    
Sea Level Pressure  
Sea Level Pressure 30.34 in    
Wind  
Wind Speed 8 mph (South)    
Max Wind Speed 17 mph    
Max Gust Speed 22 mph    
Visibility 10 miles    
Events      
T = Trace of Precipitation, MM = Missing Value Source: NWS Daily Summary

Daily Weather History Graph

Daily Weather History Graph

Search for Another Location

Airport or City:

Trip Planner

Search our weather history database for the weather conditions in past years. The results will help you decide how hot, cold, wet, or windy it might be!

Date:

Astronomy

Feb. 01, 2013 Rise Set
Actual Time 7:33 AM CST 5:53 PM CST
Civil Twilight 7:05 AM CST 6:21 PM CST
Nautical Twilight 6:34 AM CST 6:52 PM CST
Astronomical Twilight 6:03 AM CST 7:23 PM CST
Moon 11:54 PM CST (2/1) 10:14 AM CST (2/1)
Length of Visible Light 11h 15m
Length of Day
10h 20m
Waning Gibbous, 70% of the Moon is Illuminated
Feb 1
Waning Gibbous
Feb 3
Last Quarter
Feb 10
New
Feb 17
First Quarter
Feb 25
Full

Hourly Weather History & Observations

Time (CST) Temp. Windchill Dew Point Humidity Pressure Visibility Wind Dir Wind Speed Gust Speed Precip Events Conditions
12:53 AM 15.1 °F - 5.0 °F 64% 30.46 in 10.0 mi Calm Calm - N/A   Clear
1:53 AM 12.0 °F 2.7 °F 7.0 °F 80% 30.48 in 10.0 mi WSW 5.8 mph - N/A   Clear
2:53 AM 14.0 °F - 7.0 °F 74% 30.48 in 10.0 mi Calm Calm - N/A   Clear
3:53 AM 10.9 °F 2.9 °F 7.0 °F 84% 30.47 in 10.0 mi SSW 4.6 mph - N/A   Clear
4:53 AM 10.9 °F 2.9 °F 5.0 °F 77% 30.45 in 10.0 mi SSW 4.6 mph - N/A   Clear
5:53 AM 12.9 °F - 6.1 °F 74% 30.46 in 10.0 mi Calm Calm - N/A   Clear
6:53 AM 12.0 °F - 6.1 °F 77% 30.46 in 10.0 mi Calm Calm - N/A   Scattered Clouds
7:53 AM 15.1 °F 7.7 °F 9.0 °F 77% 30.46 in 10.0 mi South 4.6 mph - N/A   Mostly Cloudy
8:53 AM 18.0 °F 6.9 °F 10.0 °F 71% 30.45 in 10.0 mi South 9.2 mph - N/A   Mostly Cloudy
9:53 AM 21.0 °F 9.3 °F 10.0 °F 63% 30.44 in 10.0 mi South 11.5 mph - N/A   Mostly Cloudy
10:53 AM 24.1 °F 12.0 °F 5.0 °F 44% 30.44 in 10.0 mi South 13.8 mph - N/A   Mostly Cloudy
11:53 AM 26.6 °F 14.7 °F 5.0 °F 40% 30.34 in 10.0 mi South 15.0 mph - N/A   Mostly Cloudy
12:53 PM 30.0 °F 20.5 °F 5.0 °F 35% 30.36 in 10.0 mi South 11.5 mph 19.6 mph N/A   Mostly Cloudy
1:53 PM 33.8 °F 25.8 °F 6.8 °F 32% 30.24 in 10.0 mi South 10.4 mph - N/A   Mostly Cloudy
2:53 PM 33.1 °F 24.9 °F 7.0 °F 34% 30.27 in 10.0 mi SSW 10.4 mph - N/A   Mostly Cloudy
3:53 PM 35.1 °F 24.8 °F 8.1 °F 33% 30.23 in 10.0 mi South 17.3 mph - N/A   Mostly Cloudy
4:53 PM 37.0 °F 27.7 °F 9.0 °F 31% 30.21 in 10.0 mi South 16.1 mph - N/A   Scattered Clouds
5:53 PM 30.9 °F 23.5 °F 9.0 °F 40% 30.22 in 10.0 mi South 8.1 mph - N/A   Scattered Clouds
6:53 PM 27.0 °F 19.5 °F 8.1 °F 45% 30.22 in 10.0 mi SSE 6.9 mph - N/A   Partly Cloudy
7:53 PM 27.0 °F 18.7 °F 9.0 °F 47% 30.21 in 10.0 mi SSE 8.1 mph - N/A   Partly Cloudy
8:53 PM 26.1 °F 18.4 °F 10.9 °F 53% 30.21 in 10.0 mi South 6.9 mph - N/A   Partly Cloudy
9:53 PM 28.9 °F 23.9 °F 12.9 °F 51% 30.22 in 10.0 mi South 4.6 mph - N/A   Mostly Cloudy
10:53 PM 28.0 °F 20.8 °F 12.0 °F 51% 30.20 in 10.0 mi South 6.9 mph - N/A   Scattered Clouds
11:53 PM 24.1 °F 17.0 °F 10.9 °F 57% 30.21 in 10.0 mi SSW 5.8 mph - N/A   Partly Cloudy